Location: Bienfait
(49.1431°N, 102.8077°W)
Time: 19:51:39
(UTC+00:00)

Envisat - Pass Details

Date: 03 February 2022
Orbit: 764 x 765 km, 98.2° (Epoch: 22 May)

Event Time Altitude Azimuth Distance (km) Brightness Sun altitude
Rises 10:59:43 0° 21° (NNE) 3,243 6.7 -32.7°
Reaches altitude 10° 11:02:17 10° 32° (NNE) 2,312 6.0 -32.3°
Maximum altitude 11:06:48 31° 95° (E) 1,316 4.7 -31.6°
Drops below altitude 10° 11:11:17 10° 157° (SSE) 2,298 5.6 -30.9°
Sets 11:13:49 0° 167° (SSE) 3,219 6.3 -30.5°
